THEMIS D

Last updated on Tue Sep 15 2026 00:03:03 GMT+0000 (Coordinated Universal Time)

1 30797U 07004D 26255.22743475 -.00000437 00000+0 00000+0 0 9994 2 30797 8.2039 75.3535 8306627 245.2974 25.1042 0.87844675 41843
UTC large
Height (km)
Speed (km/s)
/
Latitude / Longitude
Inclination (degrees)
Orbital Period (minutes)
Azimuth
Elevation
Range (km)
Doppler Factor

Next 0 passes for location: London (51.5072 / 0.1276)

No passes found over London.
THEMIS D